Location: ????????
(56.1167°N, 38.6333°E)
Time: 07:23:48
(UTC+00:00)

Okean 1 Rocket - Pass Details

Date: 18 November 2025
Orbit: 599 x 628 km, 82.5° (Epoch: 14 December)

Event Time Altitude Azimuth Distance (km) Brightness Sun altitude
Rises 14:49:12 0° 148° (SSE) 2,890 6.3 -13.1°
Reaches altitude 10° 14:51:52 10° 132° (SE) 1,984 5.3 -13.4°
Enters shadow 14:54:21 19° 99° (E) 1,461 4.4 -13.8°
